Location: Furnace Creek
(36.4500°N, 116.8500°W)
Time: 01:17:01
(UTC-08:00)

ISS - Visible Passes

Search period start: 01 December 2020 00:00
Search period end: 11 December 2020 00:00
Orbit: 418 x 420 km, 51.6° (Epoch: 01 December)

Date Brightness Start Highest point End Pass type
(mag) Time Alt. Az. Time Alt. Az. Time Alt. Az.
03 Dec -1.3 17:51:57 10° N 17:52:36 12° N 17:52:36 12° N visible
04 Dec -0.8 18:39:58 10° NW 18:40:11 11° NNW 18:40:11 11° NNW visible
05 Dec -2.3 17:52:36 10° NNW 17:54:56 23° NNE 17:54:56 23° NNE visible
06 Dec -2.0 17:05:21 10° NNW 17:07:38 17° NNE 17:09:52 10° ENE visible
06 Dec -1.6 18:41:23 10° NW 18:42:53 24° WNW 18:42:53 24° WNW visible
07 Dec -3.9 17:53:45 10° NW 17:57:06 68° NE 17:58:08 40° ESE visible
08 Dec -3.2 17:06:15 10° NW 17:09:26 38° NE 17:12:35 10° ESE visible
08 Dec -1.1 18:43:36 10° W 18:46:00 18° SW 18:46:51 17° SSW visible
09 Dec -2.0 17:55:26 10° WNW 17:58:29 33° SW 18:01:32 10° SSE visible
10 Dec -3.2 17:07:35 10° NW 17:10:55 64° SW 17:14:13 10° SE visible
